Location: *
(46.1333°S, 161.2167°W)
Time: 09:30:38
(UTC+00:00)

Cosmos 2298 Rocket - Pass Details

Date: 25 October 2020
Orbit: 776 x 783 km, 74.0° (Epoch: 04 December)

Event Time Altitude Azimuth Distance (km) Brightness Sun altitude
Exits shadow 13:52:54 - 256° (WSW) 2,410 6.2 -15.7°
Reaches altitude 10° 13:53:10 10° 254° (WSW) 2,363 6.2 -15.7°
Maximum altitude 13:55:43 13° 225° (SW) 2,141 6.2 -15.4°
Drops below altitude 10° 13:58:17 10° 196° (SSW) 2,376 6.8 -15.0°
Sets 14:02:07 0° 170° (S) 3,313 8.0 -14.5°
